| time (UTC) | temp F | wind direction | speed MPH | gust MPH | rain 1hr in | rain 24hr in | rain mn in | humidity % | barometer mb |
| 20260507161013 | 80 | 193 | 2.0 | 4.0 | 0.00 | 0.00 | 0.38 | 22 | 1014.0 |
| 20260507160003 | 80 | 217 | 1.0 | 2.0 | 0.00 | 0.00 | 0.38 | 22 | 1014.0 |
| 20260507155004 | 79 | 267 | 1.0 | 3.0 | 0.00 | 0.00 | 0.38 | 23 | 1014.1 |
| 20260507154003 | 78 | 244 | 1.0 | 2.0 | 0.00 | 0.00 | 0.38 | 24 | 1014.1 |
| 20260507153002 | 77 | 197 | 1.0 | 3.0 | 0.00 | 0.00 | 0.38 | 25 | 1014.1 |
| 20260507152003 | 76 | 262 | 1.0 | 2.0 | 0.00 | 0.00 | 0.38 | 26 | 1014.1 |
| 20260507151013 | 74 | 177 | 2.0 | 3.0 | 0.00 | 0.00 | 0.38 | 27 | 1014.2 |
| 20260507150012 | 74 | 147 | 2.0 | 3.0 | 0.00 | 0.00 | 0.38 | 28 | 1014.2 |
| 20260507145003 | 73 | 190 | 1.0 | 2.0 | 0.00 | 0.00 | 0.39 | 29 | 1014.2 |
| 20260507144003 | 72 | 156 | 1.0 | 2.0 | 0.00 | 0.00 | 0.38 | 28 | 1014.2 |
| 20260507143003 | 72 | 225 | 0.0 | 2.0 | 0.00 | 0.00 | 0.38 | 29 | 1014.2 |
| 20260507142002 | 71 | 264 | 0.0 | 1.0 | 0.00 | 0.00 | 0.38 | 30 | 1014.2 |
| 20260507141003 | 69 | 290 | 0.0 | 1.0 | 0.00 | 0.00 | 0.38 | 32 | 1014.2 |
| 20260507140003 | 67 | 210 | 0.0 | 2.0 | 0.00 | 0.00 | 0.37 | 33 | 1014.2 |
| 20260507135003 | 65 | 329 | 0.0 | 1.0 | 0.00 | 0.00 | 0.37 | 36 | 1014.1 |
| 20260507134003 | 64 | 0 | 0.0 | 0.0 | 0.00 | 0.00 | 0.39 | 39 | 1014.0 |
| 20260507133003 | 64 | 0 | 0.0 | 0.0 | 0.00 | 0.00 | 0.36 | 36 | 1014.0 |
| 20260507132002 | 64 | 0 | 0.0 | 0.0 | 0.00 | 0.00 | 0.37 | 37 | 1014.0 |
| 20260507131003 | 65 | 302 | 0.0 | 0.0 | 0.00 | 0.00 | 0.37 | 36 | 1013.8 |
| 20260507130002 | 66 | 0 | 0.0 | 0.0 | 0.00 | 0.00 | 0.37 | 35 | 1013.8 |
| 20260507125013 | 67 | 113 | 0.0 | 1.0 | 0.00 | 0.00 | 0.36 | 33 | 1013.7 |
| 20260507124003 | 68 | 267 | 0.0 | 0.0 | 0.00 | 0.00 | 0.36 | 31 | 1013.5 |
| 20260507123003 | 67 | 350 | 1.0 | 2.0 | 0.00 | 0.00 | 0.35 | 31 | 1013.4 |
| 20260507122013 | 66 | 326 | 2.0 | 2.0 | 0.00 | 0.00 | 0.35 | 32 | 1013.5 |
| 20260507121013 | 65 | 330 | 1.0 | 2.0 | 0.00 | 0.00 | 0.35 | 33 | 1013.6 |
| 20260507120003 | 65 | 323 | 0.0 | 1.0 | 0.00 | 0.00 | 0.36 | 34 | 1013.6 |
| 20260507115003 | 64 | 329 | 2.0 | 3.0 | 0.00 | 0.00 | 0.34 | 33 | 1013.5 |
| 20260507114013 | 62 | 349 | 0.0 | 1.0 | 0.00 | 0.00 | 0.35 | 37 | 1013.6 |
| 20260507113002 | 62 | 299 | 0.0 | 1.0 | 0.00 | 0.00 | 0.35 | 37 | 1013.6 |
| 20260507112003 | 62 | 312 | 0.0 | 0.0 | 0.00 | 0.00 | 0.35 | 36 | 1013.7 |
| 20260507111002 | 62 | 0 | 0.0 | 0.0 | 0.00 | 0.00 | 0.34 | 36 | 1013.7 |
| 20260507110003 | 61 | 0 | 0.0 | 0.0 | 0.00 | 0.00 | 0.35 | 37 | 1013.7 |
| 20260507105003 | 62 | 295 | 0.0 | 0.0 | 0.00 | 0.00 | 0.35 | 37 | 1013.8 |
| 20260507104003 | 62 | 242 | 0.0 | 1.0 | 0.00 | 0.00 | 0.35 | 36 | 1013.7 |
| 20260507103002 | 62 | 0 | 0.0 | 0.0 | 0.00 | 0.00 | 0.34 | 35 | 1013.8 |
| 20260507102008 | 62 | 0 | 0.0 | 0.0 | 0.00 | 0.00 | 0.35 | 36 | 1013.9 |
| 20260507101003 | 62 | 0 | 0.0 | 0.0 | 0.00 | 0.00 | 0.35 | 37 | 1014.0 |
| 20260507100003 | 62 | 0 | 0.0 | 0.0 | 0.00 | 0.00 | 0.36 | 37 | 1014.1 |
| 20260507095003 | 63 | 0 | 0.0 | 0.0 | 0.00 | 0.00 | 0.35 | 36 | 1014.2 |
| 20260507093002 | 64 | 0 | 0.0 | 0.0 | 0.00 | 0.00 | 0.35 | 34 | 1014.3 |
| 20260507092003 | 64 | 330 | 0.0 | 2.0 | 0.00 | 0.00 | 0.35 | 34 | 1014.4 |
| 20260507091003 | 64 | 0 | 0.0 | 0.0 | 0.00 | 0.00 | 0.35 | 34 | 1014.4 |
| 20260507090004 | 65 | 293 | 0.0 | 2.0 | 0.00 | 0.00 | 0.35 | 33 | 1014.4 |
| 20260507085013 | 65 | 0 | 0.0 | 0.0 | 0.00 | 0.00 | 0.35 | 33 | 1014.5 |
| 20260507084003 | 66 | 0 | 0.0 | 0.0 | 0.00 | 0.00 | 0.35 | 32 | 1014.7 |
| 20260507083003 | 66 | 58 | 0.0 | 1.0 | 0.00 | 0.00 | 0.35 | 32 | 1014.7 |
| 20260507082003 | 67 | 0 | 0.0 | 0.0 | 0.00 | 0.00 | 0.36 | 32 | 1014.8 |
| 20260507081012 | 66 | 337 | 2.0 | 3.0 | 0.00 | 0.00 | 0.35 | 31 | 1014.8 |
| 20260507080003 | 65 | 358 | 1.0 | 2.0 | 0.00 | 0.00 | 0.35 | 32 | 1014.8 |
| 20260507075003 | 65 | 308 | 1.0 | 1.0 | 0.00 | 0.00 | 0.36 | 33 | 1014.9 |
| 20260507074004 | 66 | 0 | 0.0 | 0.0 | 0.00 | 0.00 | 0.36 | 33 | 1014.8 |
| 20260507073003 | 67 | 320 | 0.0 | 1.0 | 0.00 | 0.00 | 0.36 | 32 | 1014.8 |
| 20260507072003 | 68 | 0 | 0.0 | 0.0 | 0.00 | 0.00 | 0.36 | 31 | 1014.8 |
| 20260507071003 | 69 | 0 | 0.0 | 0.0 | 0.00 | 0.00 | 0.36 | 30 | 1014.7 |
| 20260507070005 | 70 | 0 | 0.0 | 0.0 | 0.00 | 0.00 | 0.35 | 28 | 1014.7 |
| 20260507065003 | 71 | 359 | 1.0 | 2.0 | 0.00 | 0.00 | 0.36 | 28 | 1014.7 |
| 20260507064002 | 71 | 349 | 1.0 | 2.0 | 0.00 | 0.00 | 0.36 | 27 | 1014.7 |
| 20260507063003 | 71 | 342 | 2.0 | 3.0 | 0.00 | 0.00 | 0.36 | 27 | 1014.7 |
| 20260507062003 | 71 | 355 | 2.0 | 2.0 | 0.00 | 0.00 | 0.35 | 27 | 1014.5 |
| 20260507061003 | 70 | 349 | 2.0 | 4.0 | 0.00 | 0.00 | 0.36 | 28 | 1014.7 |
| 20260507060003 | 69 | 0 | 1.0 | 2.0 | 0.00 | 0.00 | 0.36 | 29 | 1014.7 |
| 20260507055002 | 69 | 335 | 0.0 | 1.0 | 0.00 | 0.00 | 0.36 | 30 | 1014.7 |
| 20260507054013 | 69 | 0 | 0.0 | 0.0 | 0.00 | 0.00 | 0.36 | 29 | 1014.7 |
| 20260507053003 | 70 | 358 | 0.0 | 2.0 | 0.00 | 0.00 | 0.35 | 28 | 1014.5 |
| 20260507052003 | 70 | 352 | 2.0 | 2.0 | 0.00 | 0.00 | 0.36 | 29 | 1014.5 |
| 20260507051003 | 70 | 0 | 0.0 | 0.0 | 0.00 | 0.00 | 0.36 | 29 | 1014.7 |
| 20260507050013 | 70 | 0 | 0.0 | 0.0 | 0.00 | 0.00 | 0.36 | 29 | 1014.7 |
| 20260507045003 | 71 | 0 | 0.0 | 0.0 | 0.00 | 0.00 | 0.36 | 28 | 1014.4 |
| 20260507044003 | 71 | 0 | 0.0 | 0.0 | 0.00 | 0.00 | 0.36 | 28 | 1014.4 |
| 20260507043003 | 72 | 0 | 0.0 | 0.0 | 0.00 | 0.00 | 0.37 | 28 | 1014.3 |
| 20260507042013 | 72 | 315 | 0.0 | 1.0 | 0.00 | 0.00 | 0.37 | 28 | 1014.3 |
| 20260507041004 | 72 | 304 | 0.0 | 0.0 | 0.00 | 0.00 | 0.36 | 27 | 1014.1 |
| 20260507040003 | 73 | 0 | 0.0 | 0.0 | 0.00 | 0.00 | 0.37 | 27 | 1014.0 |
| 20260507035003 | 73 | 0 | 0.0 | 0.0 | 0.00 | 0.00 | 0.37 | 27 | 1013.9 |
| 20260507034003 | 74 | 288 | 0.0 | 0.0 | 0.00 | 0.00 | 0.37 | 26 | 1013.8 |
| 20260507033003 | 75 | 246 | 0.0 | 0.0 | 0.00 | 0.00 | 0.37 | 25 | 1013.7 |
| 20260507032003 | 76 | 0 | 0.0 | 0.0 | 0.00 | 0.00 | 0.36 | 24 | 1013.5 |
| 20260507031003 | 77 | 316 | 0.0 | 0.0 | 0.00 | 0.00 | 0.37 | 24 | 1013.5 |
| 20260507030004 | 78 | 324 | 0.0 | 1.0 | 0.00 | 0.00 | 0.37 | 23 | 1013.4 |
| 20260507025003 | 78 | 283 | 0.0 | 1.0 | 0.00 | 0.00 | 0.37 | 23 | 1013.2 |
| 20260507024003 | 78 | 268 | 1.0 | 2.0 | 0.00 | 0.00 | 0.36 | 22 | 1013.1 |
| 20260507023003 | 79 | 270 | 1.0 | 2.0 | 0.00 | 0.00 | 0.37 | 22 | 1013.0 |
| 20260507022003 | 79 | 272 | 2.0 | 3.0 | 0.00 | 0.00 | 0.37 | 22 | 1012.9 |
| 20260507021003 | 80 | 319 | 0.0 | 1.0 | 0.00 | 0.00 | 0.38 | 22 | 1012.9 |
| 20260507020002 | 80 | 250 | 1.0 | 3.0 | 0.00 | 0.00 | 0.38 | 22 | 1012.8 |
| 20260507015003 | 81 | 214 | 0.0 | 2.0 | 0.00 | 0.00 | 0.37 | 21 | 1012.7 |
| 20260507014003 | 82 | 240 | 1.0 | 2.0 | 0.00 | 0.00 | 0.38 | 21 | 1012.7 |
| 20260507013004 | 83 | 11 | 0.0 | 2.0 | 0.00 | 0.00 | 0.38 | 20 | 1012.7 |
| 20260507012003 | 83 | 251 | 1.0 | 4.0 | 0.00 | 0.00 | 0.38 | 20 | 1012.7 |
| 20260507010003 | 85 | 309 | 2.0 | 3.0 | 0.00 | 0.00 | 0.39 | 20 | 1012.7 |
| 20260507005003 | 85 | 261 | 0.0 | 0.0 | 0.00 | 0.00 | 0.38 | 19 | 1012.6 |
| 20260507004003 | 85 | 143 | 1.0 | 2.0 | 0.00 | 0.00 | 0.38 | 19 | 1012.6 |
| 20260507003003 | 85 | 268 | 1.0 | 2.0 | 0.00 | 0.00 | 0.38 | 19 | 1012.4 |
| 20260507002003 | 85 | 264 | 2.0 | 4.0 | 0.00 | 0.00 | 0.38 | 19 | 1012.4 |
| 20260507001003 | 85 | 239 | 1.0 | 2.0 | 0.00 | 0.00 | 0.39 | 20 | 1012.4 |
| 20260507000003 | 85 | 35 | 2.0 | 4.0 | 0.00 | 0.00 | 0.38 | 19 | 1012.4 |
| 20260506235003 | 85 | 215 | 1.0 | 4.0 | 0.00 | 0.00 | 0.38 | 19 | 1012.4 |
| 20260506234003 | 84 | 295 | 1.0 | 3.0 | 0.00 | 0.00 | 0.39 | 20 | 1012.6 |
| 20260506233003 | 85 | 230 | 3.0 | 6.0 | 0.00 | 0.00 | 0.38 | 19 | 1012.6 |
| 20260506232003 | 85 | 208 | 3.0 | 5.0 | 0.00 | 0.00 | 0.38 | 19 | 1012.7 |
| 20260506231002 | 85 | 204 | 2.0 | 5.0 | 0.00 | 0.00 | 0.38 | 19 | 1012.7 |
| 20260506230003 | 85 | 258 | 3.0 | 7.0 | 0.00 | 0.00 | 0.38 | 19 | 1012.8 |
| 20260506225002 | 85 | 262 | 2.0 | 4.0 | 0.00 | 0.00 | 0.39 | 20 | 1012.8 |
| 20260506224002 | 85 | 262 | 2.0 | 5.0 | 0.00 | 0.00 | 0.39 | 20 | 1013.0 |
| 20260506223003 | 85 | 273 | 2.0 | 6.0 | 0.00 | 0.00 | 0.39 | 20 | 1013.0 |
| 20260506222003 | 84 | 216 | 2.0 | 3.0 | 0.00 | 0.00 | 0.39 | 20 | 1013.2 |
| 20260506221003 | 84 | 251 | 2.0 | 5.0 | 0.00 | 0.00 | 0.39 | 20 | 1013.3 |
| 20260506220003 | 83 | 235 | 3.0 | 4.0 | 0.00 | 0.00 | 0.38 | 20 | 1013.3 |
| 20260506215002 | 84 | 35 | 2.0 | 4.0 | 0.00 | 0.00 | 0.38 | 20 | 1013.5 |
| 20260506214003 | 84 | 241 | 4.0 | 6.0 | 0.00 | 0.00 | 0.39 | 20 | 1013.6 |
| 20260506213003 | 83 | 155 | 2.0 | 3.0 | 0.00 | 0.00 | 0.38 | 20 | 1013.8 |
| 20260506212003 | 83 | 284 | 2.0 | 3.0 | 0.00 | 0.00 | 0.38 | 20 | 1013.8 |
| 20260506211003 | 83 | 239 | 3.0 | 6.0 | 0.00 | 0.00 | 0.38 | 20 | 1014.0 |
| 20260506210003 | 84 | 169 | 1.0 | 4.0 | 0.00 | 0.00 | 0.38 | 20 | 1014.1 |
| 20260506205002 | 83 | 252 | 2.0 | 5.0 | 0.00 | 0.00 | 0.38 | 20 | 1014.3 |
| 20260506204003 | 82 | 347 | 2.0 | 5.0 | 0.00 | 0.00 | 0.38 | 21 | 1014.4 |
| 20260506203003 | 82 | 64 | 2.0 | 5.0 | 0.00 | 0.00 | 0.38 | 21 | 1014.4 |
| 20260506202003 | 81 | 247 | 2.0 | 3.0 | 0.00 | 0.00 | 0.38 | 22 | 1014.7 |
| 20260506201003 | 82 | 223 | 2.0 | 6.0 | 0.00 | 0.00 | 0.38 | 21 | 1014.7 |
| 20260506200002 | 81 | 263 | 2.0 | 4.0 | 0.00 | 0.00 | 0.38 | 22 | 1014.8 |
| 20260506195003 | 80 | 252 | 3.0 | 6.0 | 0.00 | 0.00 | 0.38 | 22 | 1014.9 |
| 20260506193008 | 80 | 246 | 2.0 | 4.0 | 0.00 | 0.00 | 0.38 | 22 | 1015.1 |